Flag for Nicaragua Weather past 2 weeks in Managua, Nicaragua

Now
91 °F

Rain. Scattered clouds.


Feels Like: 99 °F
Forecast: N/A
Wind: 25 mph from Southeast

Location: Managua A. C. Sandino

Current Time: Sep 3, 2015 at 3:57:46 PM

Latest Report: Sep 3, 2015 at 3:00 PM


Visibility: 6 mi

Pressure: 29.80 "Hg

Humidity: 52%

Dew point: 72 °F

Location of ManaguaLocation

Historic Weather in Managua — Graph

°F

Managua temperature yesterday

Maximum temperature yesterday: 93 °F (at 2:00 PM)
Minimum temperature yesterday: 77 °F (at 12:00 AM)
Average temperature yesterday: 83 °F

Past Weeks' High & Low Weather Summary

 TemperatureHumidityPressure
High97 °F (Aug 21, 2:00 PM)94% (Aug 22, 7:00 AM)29.92 "Hg (Aug 22, 7:00 AM)
Low73 °F (Aug 25, 3:00 AM)39% (Aug 24, 1:00 PM)29.71 "Hg (Aug 24, 3:00 PM)
Average84 °F71%29.83 "Hg
* Reported Aug 19 2:00 PM — Sep 3 2:00 PM, Managua, Weather by CustomWeather, © 2015

Note: Actual official high and low records may vary slightly from our data, if they occured in-between our weather recording intervals... More about our weather records

Advertising

Managua weather history for previous 24 hours

 ConditionsComfort  
Time TempWeatherWind HumidityBarometerVisibility
2:00 PM
Thu, Sep 3
93 °FPassing clouds.16 mph47%29.80 "HgN/A
1:00 PM93 °FPassing clouds.18 mph47%29.83 "HgN/A
12:00 PM91 °FPassing clouds.18 mph41%29.83 "HgN/A
10:00 AM86 °FScattered clouds.18 mph62%29.89 "HgN/A
8:00 AM84 °FScattered clouds.12 mph70%29.83 "HgN/A
7:00 AM79 °FScattered clouds.5 mph89%29.83 "HgN/A
6:00 AM77 °FScattered clouds.5 mph94%29.83 "HgN/A
5:00 AM79 °FPassing clouds.5 mph89%29.83 "HgN/A
4:00 AM77 °FPassing clouds.5 mph94%29.83 "HgN/A
2:00 AM77 °FPassing clouds.7 mph94%29.83 "HgN/A
12:00 AM77 °FPassing clouds.No wind94%29.83 "HgN/A
11:00 PM
Wed, Sep 2
77 °FPassing clouds.5 mph94%29.86 "HgN/A
10:00 PM77 °FPassing clouds.5 mph94%29.89 "HgN/A
9:00 PM77 °FPassing clouds.7 mph89%29.89 "HgN/A
8:00 PM77 °FPassing clouds.9 mph94%29.89 "Hg6 mi
7:00 PM81 °FWarm.12 mph79%29.86 "HgN/A
6:00 PM82 °FPassing clouds.7 mph79%29.83 "HgN/A
5:00 PM84 °FScattered clouds.9 mph66%29.83 "HgN/A
4:00 PM86 °FScattered clouds.12 mph59%29.83 "HgN/A
3:00 PM90 °FThunderstorms. Scattered clouds.14 mph52%29.83 "HgN/A
Weather by CustomWeather, © 2015

See weather overviewHow to use our weather pages